Tracking 30743 objects as of 20-Jun-2025
HD Live streaming from Space Station
objects crossing your sky now

FENGYUN 1C DEB

Track FENGYUN 1C DEB now!
10-day predictions


NORAD ID: 37714
Int'l Code: 1999-025EMF
Perigee: 763.3 km
Apogee: 834.8 km
Inclination: 98.9 °
Period: 100.7 minutes
Semi major axis: 7170 km
RCS: 0.001 m2 (small)
Launch date: May 10, 1999
Source: People's Republic of China (PRC)
Launch site: Taiyaun Space Center, China (TSC)

Note: This is SATELLITE DEBRIS
Your satellite tracking list
Your tracking list is empty




NASA's NSSDC Master Catalog

Two Line Element Set (TLE):
1 37714U 99025EMF 25167.56433400  .00003938  00000-0  15248-2 0  9998
2 37714  98.8884 275.2125 0049861 241.5683 118.0469 14.29948125549473
Source of the keplerian elements: AFSPC